Mobile Downtown, AL

12:30 PM CDT on September 26, 2017 (GMT -0500)
Mobile Downtown

Weather History for KBFM - January, 2014

Change the Weather History Date:

Friday, January 10, 2014

  Actual Average Record
Temperature  
Mean Temperature 56 °F -  
Max Temperature 63 °F 57 °F 73 °F (2002)
Min Temperature 48 °F 39 °F 24 °F (1999)
Degree Days  
Heating Degree Days 10    
Growing Degree Days 6 (Base 50)    
Moisture  
Dew Point 54 °F    
Average Humidity 91    
Maximum Humidity 100    
Minimum Humidity 78    
Precipitation  
Precipitation 0.33 in - - ()
Sea Level Pressure  
Sea Level Pressure 30.08 in    
Wind  
Wind Speed 4 mph (NE)    
Max Wind Speed 10 mph    
Max Gust Speed 23 mph    
Visibility 6 miles    
Events Fog , Rain , Thunderstorm    
Averages and records for this station are not official NWS values.
T = Trace of Precipitation, MM = Missing Value Source: NWS Daily Summary

Daily Weather History Graph

Daily Weather History Graph

Search for Another Location

Airport or City:

Trip Planner

Search our weather history database for the weather conditions in past years. The results will help you decide how hot, cold, wet, or windy it might be!

Date:

Astronomy

Jan. 10, 2014 Rise Set
Actual Time 6:50 AM CST 5:09 PM CST
Civil Twilight 6:24 AM CST 5:35 PM CST
Nautical Twilight 5:54 AM CST 6:05 PM CST
Astronomical Twilight 5:25 AM CST 6:34 PM CST
Moon 1:07 PM CST (1/10) 2:04 AM CST (1/10)
Length of Visible Light 11h 11m
Length of Day
10h 18m
Waxing Gibbous, 75% of the Moon is Illuminated
Jan 10
Waxing Gibbous
Jan 15
Full
Jan 23
Last Quarter
Jan 30
New
Feb 6
First Quarter

Hourly Weather History & Observations

Time (CST) Temp. Dew Point Humidity Pressure Visibility Wind Dir Wind Speed Gust Speed Precip Events Conditions
12:53 AM 50.0 °F 46.9 °F 89% 30.24 in 10.0 mi NNW 5.8 mph - N/A   Overcast
1:21 AM 50.0 °F 46.9 °F 89% 30.23 in 10.0 mi NNE 5.8 mph - N/A   Overcast
1:28 AM 50.0 °F 46.9 °F 89% 30.23 in 10.0 mi North 4.6 mph - N/A   Overcast
1:53 AM 50.0 °F 46.9 °F 89% 30.22 in 10.0 mi North 3.5 mph - N/A   Overcast
2:53 AM 50.0 °F 46.9 °F 89% 30.21 in 10.0 mi NNE 4.6 mph - N/A   Overcast
3:24 AM 50.0 °F 46.9 °F 89% 30.21 in 10.0 mi North 4.6 mph - N/A   Overcast
3:53 AM 50.0 °F 46.9 °F 89% 30.20 in 10.0 mi NNE 3.5 mph - N/A   Overcast
4:53 AM 50.0 °F 46.9 °F 89% 30.19 in 10.0 mi NNE 6.9 mph - N/A   Overcast
5:24 AM 50.0 °F 46.9 °F 89% 30.18 in 10.0 mi NNE 5.8 mph - N/A   Overcast
5:53 AM 50.0 °F 48.0 °F 93% 30.17 in 5.0 mi NNW 4.6 mph - N/A   Overcast
6:53 AM 48.9 °F 48.0 °F 97% 30.16 in 3.0 mi North 4.6 mph - N/A   Overcast
7:53 AM 50.0 °F 48.0 °F 93% 30.18 in 3.0 mi ENE 4.6 mph - N/A   Overcast
8:53 AM 51.1 °F 48.9 °F 92% 30.18 in 6.0 mi NNE 3.5 mph - N/A   Overcast
9:53 AM 54.0 °F 51.1 °F 90% 30.18 in 5.0 mi North 3.5 mph - N/A   Overcast
10:53 AM 57.0 °F 52.0 °F 83% 30.15 in 10.0 mi NNE 4.6 mph - N/A   Overcast
11:53 AM 57.9 °F 53.1 °F 84% 30.10 in 9.0 mi Calm Calm - N/A   Overcast
12:21 PM 57.9 °F 54.0 °F 87% 30.08 in 8.0 mi North 4.6 mph - 0.00 in Rain Light Rain
12:53 PM 59.0 °F 55.0 °F 87% 30.05 in 10.0 mi North 3.5 mph - 0.00 in   Overcast
1:53 PM 61.0 °F 55.0 °F 81% 30.03 in 10.0 mi Calm Calm - N/A   Overcast
2:53 PM 62.1 °F 55.0 °F 78% 30.01 in 10.0 mi Calm Calm - N/A   Overcast
3:53 PM 62.1 °F 55.9 °F 80% 30.02 in 10.0 mi Calm Calm - N/A   Overcast
4:01 PM 62.1 °F 55.9 °F 80% 30.02 in 10.0 mi Calm Calm - N/A   Overcast
4:53 PM 59.0 °F 55.9 °F 90% 30.00 in 10.0 mi Calm Calm - 0.00 in Rain Light Rain
5:53 PM 59.0 °F 57.0 °F 93% 30.00 in 10.0 mi Calm Calm - 0.00 in   Overcast
6:00 PM 59.0 °F 57.0 °F 93% 30.00 in 9.0 mi Calm Calm - N/A   Overcast
6:53 PM 59.0 °F 57.0 °F 93% 30.00 in 2.0 mi Calm Calm - N/A   Overcast
7:53 PM 60.1 °F 59.0 °F 96% 29.99 in 2.0 mi Calm Calm - 0.08 in Rain Rain
8:24 PM 60.1 °F 59.0 °F 96% 29.98 in 1.0 mi Calm Calm - 0.06 in Rain Heavy Rain
8:39 PM 61.0 °F 60.1 °F 97% 29.98 in 1.5 mi SE 4.6 mph - 0.22 in Rain , Thunderstorm Rain
8:42 PM 61.0 °F 60.1 °F 97% 29.98 in 3.0 mi SSE 4.6 mph - 0.22 in Rain , Thunderstorm Rain
8:53 PM 62.1 °F 61.0 °F 96% 29.98 in 5.0 mi South 4.6 mph - 0.22 in Rain Light Rain
9:15 PM 62.1 °F 62.1 °F 100% 29.97 in 0.5 mi SSE 8.1 mph - 0.01 in Fog , Rain Light Rain
9:53 PM 61.0 °F 61.0 °F 100% 29.97 in 0.5 mi South 8.1 mph - 0.01 in Fog Fog
10:53 PM 62.1 °F 62.1 °F 100% 29.96 in 0.8 mi South 6.9 mph - 0.02 in   Mist
11:14 PM 63.0 °F 62.1 °F 97% 29.96 in 1.2 mi South 8.1 mph 18.4 mph N/A   Overcast
11:26 PM 63.0 °F 63.0 °F 100% 29.95 in 2.0 mi South 10.4 mph 23.0 mph N/A   Overcast
11:51 PM 62.6 °F 62.6 °F 100% 29.95 in 1.2 mi South 6.9 mph - 0.00 in Rain Light Rain
11:53 PM 63.0 °F 62.1 °F 97% 29.95 in 1.2 mi South 8.1 mph - 0.00 in Rain Light Rain